Satellite: GO-32
Catalog number: 25397
Epoch time:      09028.79547805
Element set:     808
Inclination:      098.3402 deg
RA of node:       058.5131 deg
Eccentricity:    0.0000773
Arg of perigee:   345.8471 deg
Mean anomaly:     014.2666 deg
Mean motion:   14.23154070 rev/day
Decay rate:       -6.8e-07 rev/day^2
Epoch rev:           54830
Checksum:              307

Satellite: NO-44
Catalog number: 26931
Epoch time:      09029.61810331
Element set:      85
Inclination:      067.0507 deg
RA of node:       061.3322 deg
Eccentricity:    0.0005624
Arg of perigee:   260.7606 deg
Mean anomaly:     099.2865 deg
Mean motion:   14.29544691 rev/day
Decay rate:      -2.69e-06 rev/day^2
Epoch rev:           38277
Checksum:              310

Satellite: SO-50
Catalog number: 27607
Epoch time:      09028.65600967
Element set:     800
Inclination:      064.5583 deg
RA of node:       088.8724 deg
Eccentricity:    0.0080483
Arg of perigee:   235.4045 deg
Mean anomaly:     123.9485 deg
Mean motion:   14.71411078 rev/day
Decay rate:       -5.8e-07 rev/day^2
Epoch rev:           32814
Checksum:              316

Satellite: CO-55
Catalog number: 27844
Epoch time:      09029.52488861
Element set:     499
Inclination:      098.7149 deg
RA of node:       040.6356 deg
Eccentricity:    0.0009750
Arg of perigee:   179.4744 deg
Mean anomaly:     180.6437 deg
Mean motion:   14.20619949 rev/day
Decay rate:        4.5e-07 rev/day^2
Epoch rev:           28957
Checksum:              363

Satellite: CO-57
Catalog number: 27848
Epoch time:      09028.56747997
Element set:     445
Inclination:      098.7164 deg
RA of node:       038.7574 deg
Eccentricity:    0.0009383
Arg of perigee:   187.1427 deg
Mean anomaly:     172.9639 deg
Mean motion:   14.20424430 rev/day
Decay rate:        2.5e-07 rev/day^2
Epoch rev:           28940
Checksum:              351

Satellite: AO-51
Catalog number: 28375
Epoch time:      09029.61138548
Element set:     304
Inclination:      098.0566 deg
RA of node:       047.2627 deg
Eccentricity:    0.0083177
Arg of perigee:   185.3656 deg
Mean anomaly:     174.6651 deg
Mean motion:   14.40631578 rev/day
Decay rate:        1.0e-08 rev/day^2
Epoch rev:           24100
Checksum:              305

Satellite: CO-56
Catalog number: 28941
Epoch time:      09029.84042704
Element set:     771
Inclination:      098.1244 deg
RA of node:       180.1122 deg
Eccentricity:    0.0123260
Arg of perigee:   290.3178 deg
Mean anomaly:     068.4949 deg
Mean motion:   15.70186104 rev/day
Decay rate:     2.7494e-04 rev/day^2
Epoch rev:           16544
Checksum:              313

Satellite: CP3
Catalog number: 31128
Epoch time:      09028.81564733
Element set:     542
Inclination:      098.0095 deg
RA of node:       088.3550 deg
Eccentricity:    0.0103110
Arg of perigee:   357.6160 deg
Mean anomaly:     002.4525 deg
Mean motion:   14.52013201 rev/day
Decay rate:       -4.7e-07 rev/day^2
Epoch rev:            9467
Checksum:              264

Satellite: CP4
Catalog number: 31132
Epoch time:      09029.66336729
Element set:     522
Inclination:      098.0161 deg
RA of node:       092.4657 deg
Eccentricity:    0.0085337
Arg of perigee:   345.6394 deg
Mean anomaly:     014.2369 deg
Mean motion:   14.55179542 rev/day
Decay rate:       1.08e-06 rev/day^2
Epoch rev:            9488
Checksum:              318

Satellite: CO-65
Catalog number: 32785
Epoch time:      09029.32664762
Element set:     277
Inclination:      097.9660 deg
RA of node:       094.3237 deg
Eccentricity:    0.0015803
Arg of perigee:   119.7896 deg
Mean anomaly:     240.4891 deg
Mean motion:   14.81442631 rev/day
Decay rate:        1.6e-07 rev/day^2
Epoch rev:            4088
Checksum:              331

/EX
SB KEPS @ AMSAT  $ORB09029.W
Orbital Elements  09029.WEATHER

HR AMSAT ORBITAL ELEMENTS FOR WEATHER SATELLITES
FROM WA5QGD FORT WORTH,TX January 29, 2009
Send Subscribe/unsubscribe to KEPS at 
http://www.amsat.org/mailman/listinfo/keps
BID: ORB09029.W
TO ALL RADIO AMATEURS BT

Satellite: NOAA-10
Catalog number: 16969
Epoch time:      09028.66204388
Element set:    0479
Inclination:      098.7058 deg
RA of node:       055.9756 deg
Eccentricity:    0.0011537
Arg of perigee:   242.7042 deg
Mean anomaly:     117.2945 deg
Mean motion:   14.27378939 rev/day
Decay rate:        1.3e-07 rev/day^2
Epoch rev:           16360
Checksum:              333

Satellite: NOAA-11
Catalog number: 19531
Epoch time:      09028.82551119
Element set:    0493
Inclination:      098.7882 deg
RA of node:       120.9273 deg
Eccentricity:    0.0011638
Arg of perigee:   141.7663 deg
Mean anomaly:     218.4329 deg
Mean motion:   14.14886451 rev/day
Decay rate:      -1.75e-06 rev/day^2
Epoch rev:           04981
Checksum:              318

Satellite: NOAA-12
Catalog number: 21263
Epoch time:      09028.92672973
Element set:    0007
Inclination:      098.7725 deg
RA of node:       036.9187 deg
Eccentricity:    0.0012144
Arg of perigee:   186.5515 deg
Mean anomaly:     173.5508 deg
Mean motion:   14.25564646 rev/day
Decay rate:        1.9e-07 rev/day^2
Epoch rev:           92055
Checksum:              317

